Home   Weather   Vieux Fort   Past weeks

Flag for Saint Lucia Past Weather in Vieux Fort, Saint Lucia — Yesterday and Last 2 Weeks

Now
81 °F

Passing clouds.


Feels Like: 85 °F
Forecast: 81 / 87 °F
Wind: 17 mph from East

Location: Hewanorra International Airport

Current Time: Apr 29, 2017 at 5:45:19 am

Latest Report: Apr 29, 2017 at 5:00 am


Visibility: N/A

Pressure: 29.98 "Hg

Humidity: 79%

Dew Point: 73 °F

Location of Vieux FortLocation

Past Weather in Vieux Fort — Graph

°F

Vieux Fort Temperature Yesterday

Maximum temperature yesterday: 86 °F (at 9:00 am)
Minimum temperature yesterday: 81 °F (at 12:00 am)
Average temperature yesterday: 83 °F

High & Low Weather Summary for the Past Weeks

 TemperatureHumidityPressure
High88 °F (Apr 27, 1:00 pm)100% (Apr 19, 9:00 am)30.04 "Hg (Apr 19, 9:00 am)
Low75 °F (Apr 19, 9:00 am)62% (Apr 21, 12:00 pm)29.89 "Hg (Apr 20, 2:00 pm)
Average82 °F77%29.95 "Hg
* Reported Apr 19 3:00 am — Apr 29 5:00 am, Vieux Fort, Weather by CustomWeather, © 2017

Note: Actual official high and low records may vary slightly from our data, if they occured in-between our weather recording intervals... More about our weather records

Advertising

Vieux Fort Weather History for the Previous 24 Hours

Scroll right to see more
 ConditionsComfort  
Time TempWeatherWind HumidityBarometerVisibility
5:00 am
Sat, Apr 29
81 °FPassing clouds.17 mph79%29.98 "HgN/A
3:00 am81 °FPassing clouds.16 mph79%29.98 "HgN/A
2:00 am81 °FPassing clouds.18 mph79%29.98 "HgN/A
1:00 am81 °FPassing clouds.18 mph84%30.01 "HgN/A
12:00 am81 °FPassing clouds.20 mph79%30.04 "HgN/A
11:00 pm
Fri, Apr 28
82 °FPassing clouds.22 mph74%30.04 "HgN/A
10:00 pm81 °FPassing clouds.21 mph84%30.04 "HgN/A
9:00 pm82 °FPassing clouds.17 mph74%30.04 "HgN/A
8:00 pm82 °FPassing clouds.20 mph79%30.01 "HgN/A
7:00 pm82 °FPassing clouds.17 mph74%29.98 "HgN/A
6:00 pm82 °FScattered clouds.17 mph79%29.98 "HgN/A
5:00 pm84 °FPartly sunny.17 mph74%29.95 "HgN/A
4:00 pm84 °FScattered clouds.18 mph74%29.95 "HgN/A
3:00 pm86 °FPassing clouds.21 mph70%29.98 "HgN/A
2:00 pm86 °FScattered clouds.20 mph75%29.98 "HgN/A
1:00 pm86 °FScattered clouds.21 mph70%30.01 "HgN/A
12:00 pm86 °FScattered clouds.20 mph75%30.01 "HgN/A
11:00 am86 °FScattered clouds.21 mph75%30.01 "HgN/A
10:00 am86 °FScattered clouds.20 mph70%30.01 "HgN/A
9:00 am86 °FPassing clouds.20 mph70%30.01 "HgN/A
8:00 am84 °FScattered clouds.17 mph74%30.01 "HgN/A
7:00 am82 °FScattered clouds.17 mph74%29.98 "HgN/A
6:00 am81 °FPassing clouds.16 mph79%29.98 "HgN/A
5:00 am81 °FPassing clouds.17 mph79%29.98 "HgN/A
Weather by CustomWeather, © 2017

See weather overviewHow to use our weather pages